Date String (YYYY-MM-DD hh:mm:ss) UTC,Instrument flags,absolute air pressure of the measurement (hPa),sample flow rate (lpm),inlet stack bypass flow (lpm),air temperature of the measurement (°C),ambient temperature measured by the external sensor (°C),aerosol sample conditioner tube jacket temperature (°C),OPC LED temperature (°C),internal box temperature (°C),relative humidity of the measurement (%),span deviation,mass concentration of particles derived from Lorenz-Mie calculation of OPC scattering (μg/m³),mass concentration of particles derived from Lorenz-Mie calculation of OPC scattering (μg/m³),mass concentration of particles derived from Lorenz-Mie calculation of OPC scattering (μg/m³)
DateTimeUTC,F1_M11,P_M11,Q1_M11,Q2_M11,T1_M11,T2_M11,T3_M11,T4_M11,T5_M11,U1_M11,ZSPAN_M11,X0_M11,X2_M11,X1_M11
2023-10-29 09:00:00,SystemResetWarning,0835.3,5.00,000.00,021.8,020.4,000.0,030.3,023.3,13.2,0000.0,0007.43,0005.49,0005.36
2023-10-29 09:01:00,SystemResetWarning,0835.2,5.01,000.00,021.8,020.4,000.0,030.3,023.2,13.2,0000.0,0007.41,0005.47,0005.35
2023-10-29 09:02:00,SystemResetWarning,0835.2,5.00,000.00,021.8,020.4,000.0,030.2,023.2,13.2,0000.0,0007.40,0005.46,0005.33
2023-10-29 09:03:00,SystemResetWarning,0835.2,5.00,000.00,021.8,020.3,000.0,030.2,023.2,13.2,0000.0,0007.37,0005.44,0005.32
2023-10-29 09:04:00,SystemResetWarning,0835.3,5.01,000.00,021.8,020.4,000.0,030.2,023.3,13.2,0000.0,0007.34,0005.42,0005.31
2023-10-29 09:05:00,SystemResetWarning,0835.3,5.00,000.00,021.8,021.0,000.0,030.1,023.6,13.1,0000.0,0007.36,0005.43,0005.31
2023-10-29 09:06:00,SystemResetWarning,0835.5,5.00,000.00,022.0,021.8,000.0,030.1,023.9,13.0,0000.0,0007.39,0005.43,0005.30
2023-10-29 09:07:00,SystemResetWarning,0835.5,4.99,000.00,022.0,021.9,000.0,030.2,023.8,13.0,0000.0,0007.33,0005.39,0005.28
2023-10-29 09:08:00,SystemResetWarning,0835.6,5.00,000.00,022.0,021.8,000.0,030.2,023.7,12.9,0000.0,0007.36,0005.39,0005.27
2023-10-29 09:09:00,SystemResetWarning,0835.5,5.01,000.00,022.0,021.6,000.0,030.2,023.7,12.9,0000.0,0007.31,0005.38,0005.26
2023-10-29 09:10:00,SystemResetWarning,0835.5,5.00,000.00,022.0,021.4,000.0,030.3,023.6,12.9,0000.0,0007.30,0005.37,0005.25
2023-10-29 09:11:00,SystemResetWarning,0835.5,5.00,000.00,022.0,021.3,000.0,030.3,023.6,12.9,0000.0,0007.32,0005.38,0005.26
2023-10-29 09:12:00,SystemResetWarning,0835.5,4.99,000.00,022.0,021.1,000.0,030.3,023.5,12.9,0000.0,0007.32,0005.39,0005.27
2023-10-29 09:13:00,SystemResetWarning,0835.5,5.00,000.00,022.0,021.0,000.0,030.3,023.5,12.9,0000.0,0007.28,0005.39,0005.29
2023-10-29 09:14:00,SystemResetWarning,0835.5,5.00,000.00,022.0,020.9,000.0,030.3,023.4,12.9,0000.0,0007.28,0005.40,0005.30
2023-10-29 09:15:00,SystemResetWarning,0835.6,5.00,000.00,022.0,020.8,000.0,030.3,023.4,12.9,0000.0,0007.31,0005.42,0005.32
2023-10-29 09:16:00,SystemResetWarning,0835.6,5.00,000.00,021.9,020.7,000.0,030.3,023.4,12.9,0000.0,0007.35,0005.45,0005.33
2023-10-29 09:17:00,SystemResetWarning,0835.7,5.00,000.00,021.9,020.7,000.0,030.3,023.4,13.0,0000.0,0007.34,0005.46,0005.34
2023-10-29 09:18:00,SystemResetWarning,0835.6,5.00,000.00,021.9,020.6,000.0,030.3,023.3,13.0,0000.0,0007.38,0005.48,0005.36
2023-10-29 09:19:00,SystemResetWarning,0835.7,4.99,000.00,021.9,020.5,000.0,030.3,023.3,13.0,0000.0,0007.39,0005.49,0005.37
2023-10-29 09:20:00,SystemResetWarning,0835.7,4.99,000.00,021.9,020.5,000.0,030.3,023.3,13.0,0000.0,0007.36,0005.49,0005.39
2023-10-29 09:21:00,SystemResetWarning,0835.7,5.00,000.00,021.8,020.4,000.0,030.3,023.3,13.0,0000.0,0007.34,0005.49,0005.39
2023-10-29 09:22:00,SystemResetWarning,0835.7,5.00,000.00,021.8,020.4,000.0,030.3,023.3,13.0,0000.0,0007.31,0005.48,0005.39
2023-10-29 09:23:00,SystemResetWarning,0835.6,5.00,000.00,021.8,020.4,000.0,030.3,023.3,13.0,0000.0,0007.33,0005.48,0005.38
2023-10-29 09:24:00,SystemResetWarning,0835.6,5.00,000.00,021.8,020.3,000.0,030.3,023.2,13.0,0000.0,0007.32,0005.47,0005.37
2023-10-29 09:25:00,SystemResetWarning,0835.7,5.01,000.00,021.8,020.3,000.0,030.3,023.2,13.0,0000.0,0007.34,0005.46,0005.36
2023-10-29 09:26:00,SystemResetWarning,0835.7,5.00,000.00,021.8,020.3,000.0,030.2,023.2,13.0,0000.0,0007.35,0005.45,0005.34
2023-10-29 09:27:00,SystemResetWarning,0835.6,4.99,000.00,021.8,020.3,000.0,030.2,023.3,13.0,0000.0,0007.32,0005.43,0005.33
2023-10-29 09:28:00,SystemResetWarning,0835.6,5.00,000.00,021.9,021.0,000.0,030.1,023.6,13.0,0000.0,0007.27,0005.40,0005.32
2023-10-29 09:29:00,SystemResetWarning,0835.6,5.00,000.00,022.0,021.8,000.0,030.1,023.9,12.9,0000.0,0007.25,0005.39,0005.31
2023-10-29 09:30:00,SystemResetWarning,0835.6,4.99,000.00,022.1,021.9,000.0,030.2,023.9,12.9,0000.0,0007.24,0005.38,0005.30
2023-10-29 09:31:00,SystemResetWarning,0835.6,4.99,000.00,022.1,021.7,000.0,030.2,023.8,12.9,0000.0,0007.25,0005.37,0005.28
2023-10-29 09:32:00,SystemResetWarning,0835.5,5.00,000.00,022.0,021.6,000.0,030.3,023.7,12.9,0000.0,0007.25,0005.36,0005.27
2023-10-29 09:33:00,SystemResetWarning,0835.6,5.01,000.00,022.0,021.4,000.0,030.3,023.6,12.9,0000.0,0007.25,0005.35,0005.26
2023-10-29 09:34:00,SystemResetWarning,0835.5,5.01,000.00,022.0,021.3,000.0,030.3,023.5,12.9,0000.0,0007.15,0005.33,0005.25
2023-10-29 09:35:00,SystemResetWarning,0835.6,5.01,000.00,022.0,021.1,000.0,030.3,023.5,12.9,0000.0,0007.13,0005.32,0005.24
2023-10-29 09:36:00,SystemResetWarning,0835.6,5.00,000.00,022.0,021.0,000.0,030.3,023.5,12.9,0000.0,0007.11,0005.31,0005.23
2023-10-29 09:37:00,SystemResetWarning,0835.6,5.00,000.00,022.0,020.9,000.0,030.3,023.5,12.9,0000.0,0007.04,0005.31,0005.23
2023-10-29 09:38:00,SystemResetWarning,0835.6,4.99,000.00,022.0,020.8,000.0,030.3,023.4,12.9,0000.0,0007.08,0005.30,0005.22
2023-10-29 09:39:00,SystemResetWarning,0835.6,5.00,000.00,021.9,020.8,000.0,030.3,023.4,12.9,0000.0,0007.09,0005.30,0005.21
2023-10-29 09:40:00,SystemResetWarning,0835.7,5.00,000.00,021.9,020.7,000.0,030.3,023.4,12.9,0000.0,0007.07,0005.30,0005.21
2023-10-29 09:41:00,SystemResetWarning,0835.9,5.00,000.00,021.9,020.6,000.0,030.3,023.4,12.9,0000.0,0007.06,0005.29,0005.21
2023-10-29 09:42:00,SystemResetWarning,0835.8,5.00,000.00,021.9,020.6,000.0,030.3,023.3,12.9,0000.0,0007.04,0005.29,0005.21
2023-10-29 09:43:00,SystemResetWarning,0835.6,5.01,000.00,021.9,020.5,000.0,030.3,023.3,12.9,0000.0,0007.02,0005.29,0005.21
2023-10-29 09:44:00,SystemResetWarning,0835.6,5.00,000.00,021.9,020.5,000.0,030.3,023.3,12.9,0000.0,0007.02,0005.29,0005.21
2023-10-29 09:45:00,SystemResetWarning,0835.6,5.00,000.00,021.8,020.4,000.0,030.3,023.3,13.0,0000.0,0007.13,0005.32,0005.21
2023-10-29 09:46:00,SystemResetWarning,0835.6,5.00,000.00,021.8,020.4,000.0,030.3,023.2,13.0,0000.0,0007.23,0005.33,0005.21
2023-10-29 09:47:00,SystemResetWarning,0835.6,5.00,000.00,021.8,020.4,000.0,030.3,023.2,13.0,0000.0,0007.23,0005.32,0005.20
2023-10-29 09:48:00,SystemResetWarning,0835.6,5.00,000.00,021.8,020.3,000.0,030.3,023.2,13.0,0000.0,0007.65,0005.31,0005.18
2023-10-29 09:49:00,SystemResetWarning,0835.6,5.01,000.00,021.8,020.3,000.0,030.2,023.2,13.0,0000.0,0007.63,0005.29,0005.17
2023-10-29 09:50:00,SystemResetWarning,0835.6,5.00,000.00,021.8,020.3,000.0,030.2,023.2,13.0,0000.0,0007.60,0005.28,0005.15
2023-10-29 09:51:00,SystemResetWarning,0835.6,5.00,000.00,021.8,020.3,000.0,030.2,023.2,13.0,0000.0,0007.59,0005.25,0005.12
2023-10-29 09:52:00,SystemResetWarning,0835.6,5.00,000.00,021.7,020.3,000.0,030.2,023.2,13.0,0000.0,0007.59,0005.23,0005.09
2023-10-29 09:53:00,SystemResetWarning,0835.6,5.00,000.00,021.7,020.3,000.0,030.2,023.2,13.0,0000.0,0007.60,0005.23,0005.08
2023-10-29 09:54:00,SystemResetWarning,0835.6,5.00,000.00,021.7,020.3,000.0,030.2,023.1,13.0,0000.0,0007.60,0005.21,0005.06
2023-10-29 09:55:00,SystemResetWarning,0835.5,5.00,000.00,021.7,020.2,000.0,030.2,023.2,13.0,0000.0,0007.58,0005.18,0005.03
2023-10-29 09:56:00,SystemResetWarning,0835.5,5.00,000.00,021.7,020.2,000.0,030.1,023.2,13.1,0000.0,0007.50,0005.12,0004.99
2023-10-29 09:57:00,SystemResetWarning,0835.5,5.01,000.00,021.8,020.6,000.0,030.1,023.4,13.0,0000.0,0007.42,0005.07,0004.96
2023-10-29 09:58:00,SystemResetWarning,0835.5,5.00,000.00,021.9,021.4,000.0,030.0,023.8,12.9,0000.0,0007.39,0005.07,0004.94
2023-10-29 09:59:00,SystemResetWarning,0835.6,5.00,000.00,022.0,021.7,000.0,030.1,023.8,12.9,0000.0,0006.80,0005.05,0004.93
